Location: Moscow Pond
(43.6842°N, 73.2366°W)
Time: 06:37:40
(UTC+00:00)

USA 234 - Pass Details

Date: 08 November 2025
Orbit: 1100 x 1107 km, 123.0° (Epoch: 02 December)

Event Time Altitude Azimuth Distance (km) Brightness Sun altitude
Rises 09:09:38 0° 130° (SE) 3,916 6.8 -27.1°
Reaches altitude 10° 09:12:06 10° 131° (SE) 2,960 6.1 -26.6°
Maximum altitude 09:18:40 84° 221° (SW) 1,114 3.1 -25.5°
Enters shadow 09:20:56 45° 305° (NW) 1,469 3.5 -25.0°
